Location: Altleiningen
(49.5078°N, 8.0741°E)
Time: 00:01:33
(UTC+00:00)

USA 307 - Pass Details

Date: 03 March 2021
Orbit: 567 x 577 km, 54.0° (Epoch: 13 April)

Event Time Altitude Azimuth Distance (km) Brightness Sun altitude
Rises 19:56:32 0° 291° (WNW) 2,785 7.7 -26.7°
Reaches altitude 10° 19:58:51 10° 295° (WNW) 1,884 6.5 -27.0°
Enters shadow 20:02:01 42° 326° (NW) 819 4.0 -27.5°
